EW5898 Weather Reports


time (UTC)temp
C
wind
direction
speed
KPH
gust
KPH
rain 1hr
cm
rain 24hr
cm
rain mn
cm
humidity
%
barometer
mb
20260506155043 11 262 0.0 3.2 0.00 0.00 0.00 93 1018.7
20260506154043 11 261 0.0 3.2 0.00 0.00 0.00 93 1018.8
20260506153043 11 264 0.0 3.2 0.00 0.00 0.00 92 1018.7
20260506152049 11 97 0.0 1.6 0.00 0.00 0.00 93 1018.4
20260506152044 11 233 0.0 1.6 0.00 0.00 0.00 92 1018.6
20260506151043 11 97 0.0 1.6 0.00 0.00 0.00 93 1018.3
20260506145046 11 61 0.0 3.2 0.00 0.00 0.00 93 1018.3
20260506145042 11 106 0.0 1.6 0.00 0.00 0.00 93 1018.3
20260506144147 11 117 0.0 1.6 0.00 0.00 0.00 93 1018.3
20260506143042 11 117 0.0 1.6 0.00 0.00 0.00 93 1018.4
20260506141045 10 117 0.0 1.6 0.00 0.00 0.00 94 1018.2
20260506141041 11 117 0.0 0.0 0.00 0.00 0.00 93 1018.3
20260506135040 10 117 0.0 3.2 0.00 0.00 0.00 94 1018.1
20260506134039 10 78 0.0 1.6 0.00 0.00 0.00 94 1017.9
20260506133038 10 63 0.0 3.2 0.00 0.00 0.00 94 1018.0
20260506132038 10 63 1.6 4.8 0.00 0.00 0.00 94 1017.9
20260506131038 10 75 0.0 1.6 0.00 0.00 0.00 94 1018.0
20260506130039 10 76 0.0 1.6 0.00 0.00 0.00 94 1018.0
20260506125041 10 69 0.0 1.6 0.00 0.00 0.00 95 1018.0
20260506125037 10 69 0.0 3.2 0.00 0.00 0.00 95 1017.9
20260506123037 10 75 0.0 1.6 0.00 0.00 0.00 95 1017.9
20260506122039 10 73 0.0 1.6 0.00 0.00 0.00 95 1017.8
20260506121037 10 72 0.0 3.2 0.00 0.00 0.00 95 1017.5
20260506120036 10 71 0.0 3.2 0.00 0.00 0.00 95 1017.4
20260506115041 10 80 0.0 3.2 0.00 0.00 0.00 95 1017.4
20260506115036 10 65 1.6 3.2 0.00 0.00 0.00 95 1017.4
20260506114036 10 75 1.6 3.2 0.00 0.00 0.00 95 1017.5
20260506113035 10 80 0.0 1.6 0.00 0.00 0.00 95 1017.5
20260506111034 9 66 1.6 3.2 0.00 0.00 0.00 96 1017.3
20260506110039 9 68 1.6 3.2 0.00 0.00 0.00 96 1017.1
20260506110035 9 65 0.0 3.2 0.00 0.00 0.00 96 1017.1
20260506104033 9 93 0.0 1.6 0.00 0.00 0.00 96 1017.0
20260506103033 8 94 0.0 1.6 0.00 0.00 0.00 96 1016.9
20260506102034 8 76 0.0 1.6 0.00 0.00 0.00 95 1016.8
20260506101035 8 76 0.0 3.2 0.00 0.00 0.00 95 1016.6
20260506100036 8 90 0.0 3.2 0.00 0.00 0.00 95 1016.6
20260506100032 8 90 0.0 3.2 0.00 0.00 0.00 95 1016.7
20260506094030 8 85 1.6 3.2 0.00 0.00 0.00 95 1016.6
20260506093031 8 86 1.6 1.6 0.00 0.00 0.00 95 1016.6
20260506092031 8 87 0.0 3.2 0.00 0.00 0.00 95 1016.5
20260506091035 8 86 0.0 1.6 0.00 0.00 0.00 95 1016.4
20260506091031 8 87 0.0 1.6 0.00 0.00 0.00 95 1016.5
20260506085030 8 86 1.6 3.2 0.00 0.00 0.00 94 1016.4
20260506084029 8 97 0.0 3.2 0.00 0.00 0.00 95 1016.3
20260506083033 8 102 0.0 1.6 0.00 0.00 0.00 94 1016.4
20260506083029 8 104 1.6 3.2 0.00 0.00 0.00 94 1016.4
20260506081028 8 97 1.6 1.6 0.00 0.00 0.00 94 1016.2
20260506073028 9 90 0.0 1.6 0.00 0.00 0.00 93 1015.9
20260506072025 9 83 0.0 1.6 0.00 0.00 0.00 93 1015.9
20260506071026 9 94 0.0 1.6 0.00 0.00 0.00 93 1015.8
20260506062026 10 258 0.0 1.6 0.00 0.00 0.00 92 1015.7
20260506061025 10 83 0.0 0.0 0.00 0.00 0.00 92 1015.6
20260506051022 11 107 0.0 0.0 0.00 0.00 0.00 92 1015.1
20260506045022 11 117 0.0 0.0 0.00 0.00 0.00 91 1014.9
20260506044021 11 117 0.0 0.0 0.00 0.00 0.00 91 1014.8
20260506043021 11 117 0.0 0.0 0.00 0.00 0.00 90 1014.7
20260506042021 12 117 0.0 0.0 0.00 0.00 0.00 90 1014.6
20260506041020 12 118 0.0 0.0 0.00 0.00 0.00 89 1014.5
20260506040020 12 120 0.0 0.0 0.00 0.00 0.00 88 1014.3
20260506035020 13 240 0.0 1.6 0.00 0.00 0.00 86 1014.2
20260506034020 13 240 0.0 0.0 0.00 0.00 0.00 84 1014.2
20260506033019 14 240 0.0 0.0 0.00 0.00 0.00 82 1014.2
20260506032020 15 240 0.0 0.0 0.00 0.00 0.00 79 1014.0
20260506031019 16 240 0.0 0.0 0.00 0.00 0.00 79 1014.0
20260506030022 15 254 0.0 6.4 0.00 0.00 0.00 79 1014.0
20260506030018 15 240 0.0 4.8 0.00 0.00 0.00 80 1014.0
20260506024124 17 259 4.8 11.3 0.00 0.00 0.00 76 1014.0
20260506024023 16 269 0.0 8.0 0.00 0.00 0.00 81 1014.1
20260506024019 16 237 1.6 9.7 0.00 0.00 0.00 79 1014.0
20260506022017 16 276 4.8 8.0 0.00 0.00 0.00 79 1014.1
20260506021017 16 283 3.2 11.3 0.00 0.00 0.00 79 1014.0
20260506020016 16 255 4.8 8.0 0.00 0.00 0.00 77 1014.0
20260506015015 17 275 4.8 9.7 0.00 0.00 0.00 77 1013.9
20260506013015 18 289 3.2 11.3 0.00 0.00 0.00 75 1013.9
20260506012019 19 258 1.6 6.4 0.00 0.00 0.00 69 1013.8
20260506012015 18 244 8.0 14.5 0.00 0.00 0.00 72 1013.8
20260506011121 19 264 3.2 9.7 0.00 0.00 0.00 70 1013.8
20260506005018 19 123 1.6 11.3 0.00 0.00 0.00 70 1013.9
20260506005013 19 316 3.2 11.3 0.00 0.00 0.00 70 1013.9
20260506004119 18 279 4.8 9.7 0.00 0.00 0.00 71 1013.8
20260506002013 19 202 3.2 9.7 0.00 0.00 0.00 70 1014.0
20260506001012 18 148 1.6 9.7 0.00 0.00 0.00 72 1014.1
20260506000012 18 199 1.6 8.0 0.00 0.00 0.00 72 1014.2
20260505235012 18 268 3.2 14.5 0.00 0.00 0.00 72 1014.4
20260505234011 18 303 1.6 9.7 0.00 0.00 0.00 73 1014.4
20260505233010 18 148 3.2 9.7 0.00 0.00 0.00 73 1014.4
20260505232011 18 245 1.6 9.7 0.00 0.00 0.00 72 1014.5
20260505231015 18 231 0.0 11.3 0.00 0.00 0.00 73 1014.6
20260505231011 18 261 3.2 8.0 0.00 0.00 0.00 73 1014.5
20260505225008 17 152 3.2 14.5 0.00 0.00 0.00 74 1014.7
20260505224009 17 116 3.2 16.1 0.00 0.00 0.00 75 1014.7
20260505223009 18 268 1.6 8.0 0.00 0.00 0.00 76 1014.8
20260505222013 17 281 4.8 11.3 0.00 0.00 0.00 75 1015.0
20260505222008 17 209 3.2 8.0 0.00 0.00 0.00 76 1014.8
20260505220008 17 220 1.6 9.7 0.00 0.00 0.00 77 1015.1
20260505215008 17 195 4.8 8.0 0.00 0.00 0.00 75 1015.1
20260505214008 17 165 3.2 9.7 0.00 0.00 0.00 77 1015.2
20260505213007 17 199 1.6 8.0 0.00 0.00 0.00 77 1015.2
20260505212006 17 262 3.2 8.0 0.00 0.00 0.00 77 1015.2
20260505211006 16 248 0.0 9.7 0.00 0.00 0.00 80 1015.2
20260505210006 16 261 0.0 6.4 0.00 0.00 0.00 79 1015.3
20260505205006 16 254 3.2 11.3 0.00 0.00 0.00 79 1015.4
20260505204006 16 224 3.2 6.4 0.00 0.00 0.00 80 1015.4
20260505203003 16 141 0.0 8.0 0.00 0.00 0.00 81 1015.4
20260505202006 16 279 1.6 11.3 0.00 0.00 0.00 81 1015.4
20260505201005 16 68 1.6 6.4 0.00 0.00 0.00 81 1015.3
20260505200007 15 244 0.0 9.7 0.00 0.00 0.00 81 1015.4
20260505200003 15 99 3.2 8.0 0.00 0.00 0.00 82 1015.4
20260505194007 15 265 1.6 9.7 0.00 0.00 0.00 82 1015.4
20260505194003 15 206 1.6 6.4 0.00 0.00 0.00 83 1015.4
20260505192003 15 228 0.0 3.2 0.00 0.00 0.00 82 1015.4
20260505191003 15 259 1.6 8.0 0.00 0.00 0.00 82 1015.4
20260505190008 14 228 0.0 11.3 0.00 0.00 0.00 85 1015.4
20260505190001 15 227 0.0 6.4 0.00 0.00 0.00 84 1015.4
20260505185002 15 164 1.6 6.4 0.00 0.00 0.00 84 1015.4
20260505183002 14 292 3.2 9.7 0.00 0.00 0.00 85 1015.3
20260505182005 14 282 0.0 8.0 0.00 0.00 0.00 86 1015.3
20260505182001 14 117 0.0 8.0 0.00 0.00 0.00 85 1015.4
20260505180001 14 231 0.0 9.7 0.00 0.00 0.00 85 1015.2
20260505175004 14 80 0.0 3.2 0.00 0.00 0.00 86 1015.2
20260505175000 14 178 0.0 3.2 0.00 0.00 0.00 86 1015.2
20260505173002 14 79 0.0 1.6 0.00 0.00 0.00 86 1015.2
20260505171959 13 28 0.0 3.2 0.00 0.00 0.00 87 1015.1
20260505171003 13 243 0.0 4.8 0.00 0.00 0.00 87 1015.1
20260505170959 13 73 0.0 1.6 0.00 0.00 0.00 87 1015.1
20260505164958 13 279 0.0 3.2 0.00 0.00 0.00 88 1015.1
20260505163957 13 140 0.0 4.8 0.00 0.00 0.00 89 1015.0
20260505162958 13 130 0.0 4.8 0.00 0.00 0.00 89 1015.0
20260505161957 13 161 0.0 3.2 0.00 0.00 0.00 90 1015.2
20260505161000 12 189 0.0 3.2 0.00 0.00 0.00 92 1015.2
20260505160956 13 25 0.0 4.8 0.00 0.00 0.00 91 1015.1